This demonstration page uses our WeatherBlox Daily Observations layout. Learn more.

Left ArrowRight Arrow

39.95238, -75.16362

Hourly Observations for April 15, 2022

Temp ( °F °C ) Dew Point ( °F °C ) Humidity (%) Winds ( mph kmh ) Pressure ( in mb ) Visibility ( mi km ) Precip ( " mm )
12:54 am 00:54 Mostly Cloudy 57 13.9 37 2.8 47 47 NW 8 13 30.02 1017 10 16 0.00 0.00
1:54 am 01:54 Partly Cloudy 58 14.4 40 4.4 51 51 NNW 8 13 30.04 1017 10 16 0.00 0.00
2:54 am 02:54 Mostly Clear 54 12.2 40 4.4 59 59 WNW 5 7 30.07 1018 10 16 0.00 0.00
3:54 am 03:54 Mostly Clear 53 11.7 37 2.8 55 55 NW 5 7 30.08 1019 10 16 0.00 0.00
4:54 am 04:54 Mostly Clear 53 11.7 37 2.8 55 55 NW 5 7 30.09 1019 10 16 0.00 0.00
5:54 am 05:54 Mostly Clear 48 8.9 37 2.8 66 66 WNW 3 6 30.11 1020 10 16 0.00 0.00
6:54 am 06:54 Mostly Sunny 48 8.9 36 2.2 63 63 NW 3 6 30.14 1021 10 16 0.00 0.00
7:54 am 07:54 Mostly Sunny 53 11.7 37 2.8 55 55 WNW 7 11 30.17 1022 10 16 0.00 0.00
8:54 am 08:54 Partly Cloudy 59 15 32 0 36 36 NW 6 9 30.19 1022 10 16 0.00 0.00
9:54 am 09:54 Partly Cloudy 62 16.7 28 -2.2 28 28 VRB 6 9 30.18 1022 10 16 0.00 0.00
10:54 am 10:54 Mostly Sunny 64 17.8 26 -3.3 24 24 WNW 10 17 30.18 1022 10 16 0.00 0.00
11:54 am 11:54 Mostly Sunny 65 18.3 26 -3.3 23 23 WNW 9 15 30.16 1021 10 16 0.00 0.00
12:54 pm 12:54 Mostly Sunny 67 19.4 26 -3.3 21 21 NW 14 22 30.14 1021 10 16 0.00 0.00
1:54 pm 13:54 Mostly Sunny 69 20.6 27 -2.8 21 21 W 12 19 30.12 1020 10 16 0.00 0.00
2:54 pm 14:54 Mostly Sunny 70 21.1 28 -2.2 21 21 WSW 13 20 30.11 1020 10 16 0.00 0.00
3:54 pm 15:54 Mostly Sunny 70 21.1 27 -2.8 20 20 SW 14 22 30.08 1019 10 16 0.00 0.00
4:54 pm 16:54 Mostly Sunny 70 21.1 26 -3.3 19 19 SSW 17 28 30.07 1018 10 16 0.00 0.00
5:54 pm 17:54 Mostly Sunny 68 20 27 -2.8 21 21 S 14 22 30.06 1018 10 16 0.00 0.00
6:54 pm 18:54 Mostly Sunny 64 17.8 37 2.8 37 37 S 16 26 30.06 1018 10 16 0.00 0.00
7:54 pm 19:54 Mostly Clear 61 16.1 33 0.6 35 35 S 10 17 30.07 1018 10 16 0.00 0.00
8:54 pm 20:54 Mostly Clear 62 16.7 27 -2.8 26 26 SSW 12 19 30.09 1019 10 16 0.00 0.00
9:54 pm 21:54 Mostly Clear 60 15.6 31 -0.6 33 33 SSW 10 17 30.08 1019 10 16 0.00 0.00
10:54 pm 22:54 Mostly Clear 59 15 35 1.7 41 41 SSW 13 20 30.07 1018 10 16 0.00 0.00
11:54 pm 23:54 Mostly Cloudy 57 13.9 35 1.7 44 44 SSW 12 19 30.07 1018 10 16 0.00 0.00

Powered by AerisWeather